Flag for Germany Weather past 2 weeks in Andernach, Rhineland-Palatinate, Germany

Now
46 °F

Cool.


Feels Like: 45 °F
Forecast: 47 / 63 °F
Wind: 3 mph from Northwest

Location: Buechel

Current Time: Oct 26, 2014 at 2:36:19 AM

Latest Report: Oct 26, 2014 at 2:20 AM


Visibility: 0 mi

Pressure: 30.24 "Hg

Humidity: 100%

Dew point: 46 °F

Location of AndernachLocation

Historic Weather in Andernach — Graph

°F

Andernach temperature yesterday

Maximum temperature yesterday: 50 °F (at 3:20 PM)
Minimum temperature yesterday: 45 °F (at 5:20 AM)
Average temperature yesterday: 48 °F

Past Weeks' High & Low Weather Summary

 TemperatureHumidityPressure
High66 °F (Oct 18, 3:20 PM)100% (Oct 11, 2:20 AM)30.24 "Hg (Oct 11, 2:20 AM)
Low37 °F (Oct 22, 5:20 AM)63% (Oct 15, 3:20 PM)29.56 "Hg (Oct 21, 4:20 PM)
Average51 °F90%29.96 "Hg
* Reported Oct 11 2:20 AM — Oct 26 2:20 AM, Andernach, Weather by CustomWeather, © 2014

Note: Actual official high and low records may vary slightly from our data, if they occured in-between our weather recording intervals... More about our weather records

Advertising

Andernach weather history for previous 24 hours

 ConditionsComfort  
Time TempWeatherWind HumidityBarometerVisibility
2:20 AM
Oct 26
46 °FCool.3 mph100%30.24 "Hg0 mi
1:20 AM50 °FCool.2 mph94%30.24 "Hg0 mi
12:20 AM50 °FCool.2 mph100%30.21 "Hg0 mi
11:20 PM
Oct 25
50 °FCool.3 mph100%30.21 "Hg0 mi
10:20 PM50 °FCool.3 mph100%30.21 "Hg1 mi
9:20 PM50 °FCool.5 mph100%30.18 "Hg1 mi
8:20 PM50 °FCool.5 mph100%30.18 "Hg1 mi
7:20 PM50 °FCool.5 mph100%30.15 "Hg0 mi
6:20 PM50 °FCool.7 mph100%30.15 "Hg1 mi
5:20 PM50 °FCool.7 mph94%30.15 "Hg1 mi
4:20 PM50 °FCool.7 mph94%30.12 "Hg1 mi
3:20 PM50 °FCool.6 mph94%30.12 "Hg1 mi
2:20 PM48 °FCool.7 mph100%30.12 "Hg0 mi
1:20 PM48 °FCool.8 mph100%30.12 "Hg0 mi
12:20 PM48 °FCool.6 mph94%30.12 "Hg1 mi
11:20 AM46 °FCool.6 mph100%30.12 "Hg0 mi
10:20 AM46 °FCool.8 mph100%30.09 "Hg1 mi
9:20 AM46 °FCool.8 mph93%30.09 "Hg1 mi
8:20 AM46 °FCool.8 mph93%30.07 "Hg1 mi
7:20 AM45 °FQuite cool.7 mph100%30.07 "Hg2 mi
6:20 AM45 °FQuite cool.7 mph100%30.07 "Hg2 mi
5:20 AM45 °FQuite cool.7 mph100%30.07 "Hg3 mi
4:20 AM46 °FCool.6 mph87%30.07 "Hg3 mi
3:20 AM46 °FCool.7 mph87%30.07 "Hg3 mi
2:20 AM46 °FCool.6 mph87%30.07 "HgN/A
Weather by CustomWeather, © 2014

See weather overviewHow to use our weather pages